Location: Gleizolles
(44.4833°N, 6.7667°E)
Time: 11:02:45
(UTC+00:00)

Transit 2A - Pass Details

Date: 28 June 2024
Orbit: 591 x 960 km, 66.7° (Epoch: 17 July)

Event Time Altitude Azimuth Distance (km) Brightness Sun altitude
Rises 20:29:37 0° 332° (NNW) 3,516 11.2 -10.0°
Reaches altitude 10° 20:32:25 10° 343° (NNW) 2,617 9.9 -10.3°
Maximum altitude 20:37:49 31° 44° (NE) 1,611 7.7 -11.0°
Drops below altitude 10° 20:43:21 10° 105° (ESE) 2,692 8.3 -11.6°
Enters shadow 20:43:39 - 106° (ESE) 2,785 8.4 -11.6°
